Location: Fontevrault
(47.1823°N, 0.0493°E)
Time: 02:40:58
(UTC+00:00)

Meteor 1-21 Rocket - Pass Details

Date: 25 October 2021
Orbit: 834 x 907 km, 81.2° (Epoch: 07 December)

Event Time Altitude Azimuth Distance (km) Brightness Sun altitude
Rises 17:19:38 0° 348° (NNW) 3,518 7.4 -5.0°
Reaches altitude 10° 17:22:05 10° 348° (NNW) 2,582 6.7 -5.4°
Maximum altitude 17:28:00 87° 261° (W) 912 4.5 -6.4°
Drops below altitude 10° 17:33:56 10° 172° (S) 2,583 6.8 -7.4°
Sets 17:36:23 0° 172° (S) 3,519 7.5 -7.8°
